Home   Weather   Brasilia   Past weeks

Flag for Brazil Past Weather in Brasilia, Distrito Federal, Brazil — Yesterday and Last 2 Weeks

Now
79 °F

Partly sunny.


Feels Like: 80 °F
Forecast: 62 / 82 °F
Wind: 8 mph from Northwest

Location: Brasilia Aeroporto

Current Time: Oct 1, 2016 at 12:40:55 PM

Latest Report: Oct 1, 2016 at 12:00 PM


Visibility: N/A

Pressure: 30.15 "Hg (26.62 "Hg at 1091m altitude)

Humidity: 54%

Dew Point: 61 °F

Location of BrasiliaLocation

Past Weather in Brasilia — Graph

°F

Brasilia Temperature Yesterday

Maximum temperature yesterday: 86 °F (at 2:00 PM)
Minimum temperature yesterday: 68 °F (at 3:00 AM)
Average temperature yesterday: 77 °F

High & Low Weather Summary for the Past Weeks

 TemperatureHumidityPressure
High91 °F (Sep 17, 2:00 PM)100% (Sep 25, 5:00 AM)30.21 "Hg (Sep 25, 5:00 AM)
Low59 °F (Sep 27, 5:00 AM)18% (Sep 19, 3:00 PM)29.95 "Hg (Sep 30, 3:00 PM)
Average75 °F60%30.08 "Hg
* Reported Sep 16 11:00 AM — Oct 1 11:00 AM, Brasilia, Weather by CustomWeather, © 2016

Note: Actual official high and low records may vary slightly from our data, if they occured in-between our weather recording intervals... More about our weather records

Advertising

Brasilia Weather History for the Previous 24 Hours

Scroll right to see more
 ConditionsComfort  
Time TempWeatherWind HumidityBarometerVisibility
11:00 AM
Sat, Oct 1
79 °FScattered clouds.10 mph54%30.15 "HgN/A
10:00 AM77 °FBroken clouds.5 mph54%30.15 "HgN/A
9:00 AM75 °FBroken clouds.No wind57%30.15 "HgN/A
8:00 AM72 °FPassing clouds.5 mph69%30.12 "HgN/A
7:00 AM68 °FScattered clouds.6 mph78%30.09 "HgN/A
6:00 AM66 °FPassing clouds.No wind88%30.07 "HgN/A
5:00 AM66 °FPassing clouds.3 mph88%30.04 "HgN/A
4:00 AM66 °FPassing clouds.No wind88%30.04 "HgN/A
2:00 AM68 °FPassing clouds.5 mph83%30.04 "HgN/A
1:00 AM70 °FPassing clouds.5 mph73%30.07 "HgN/A
12:00 AM73 °FClear.6 mph74%30.07 "Hg10 mi
11:00 PM
Fri, Sep 30
75 °FClear.2 mph69%30.07 "Hg10 mi
10:00 PM75 °FPassing clouds.3 mph65%30.07 "HgN/A
9:00 PM75 °FPassing clouds.2 mph65%30.04 "HgN/A
8:00 PM77 °FPassing clouds.2 mph61%30.01 "HgN/A
7:00 PM79 °FPassing clouds.3 mph58%29.98 "HgN/A
6:00 PM79 °FPassing clouds.5 mph58%29.95 "HgN/A
5:00 PM81 °FScattered clouds.9 mph45%29.95 "HgN/A
4:00 PM86 °FScattered showers. Scattered clouds.7 mph43%29.95 "HgN/A
3:00 PM84 °FScattered clouds.7 mph45%29.95 "HgN/A
2:00 PM86 °FPartly sunny.9 mph43%29.98 "HgN/A
1:00 PM84 °FBroken clouds.7 mph43%30.04 "HgN/A
12:00 PM82 °FPartly sunny.8 mph48%30.07 "HgN/A
Weather by CustomWeather, © 2016

See weather overviewHow to use our weather pages